DEMXB EDGS-EDDN

Flight info

Callsign DEMXB
Flight time N/A
Altitude 3500
Route 5039N00817E DCT EDFL DCT 5026N00839E 5008N00836E 4959N00836E 4959N00913E 4947N00936E DCT EDQG DCT ETIK DCT 4921N01052E DCT 4925N01059E 4928N01059E 4928N01101E DCT 4929N01106E
Aircraft PA24/L-SFGRY/S

Departure

Time 2026-04-26 18:13
Airport Siegerland Airport (EDGS)

Arrival

Time N/A
Airport Nuremberg Airport (EDDN)
Time Latitude Longitude Altitude Speed Heading
2026-04-26 17:59 50.70808 8.07742 1972 ft 0 kts 33°
2026-04-26 18:04 50.70821 8.07756 1974 ft 3 kts 42°
2026-04-26 18:04 50.70807 8.07787 1971 ft 5 kts 135°
2026-04-26 18:04 50.70784 8.07827 1971 ft 8 kts 124°
2026-04-26 18:05 50.70673 8.08064 1957 ft 15 kts 131°
2026-04-26 18:05 50.70606 8.08194 1956 ft 15 kts 128°
2026-04-26 18:05 50.70537 8.08331 1948 ft 18 kts 128°
2026-04-26 18:05 50.70469 8.08469 1937 ft 13 kts 130°
2026-04-26 18:06 50.70409 8.08590 1934 ft 17 kts 128°
2026-04-26 18:06 50.70337 8.08739 1929 ft 15 kts 131°
2026-04-26 18:06 50.70308 8.08838 1928 ft 6 kts 79°
2026-04-26 18:06 50.70316 8.08869 1932 ft 2 kts 95°
2026-04-26 18:07 50.70303 8.08870 1930 ft 1 kts 281°
2026-04-26 18:07 50.70304 8.08868 1930 ft 0 kts 298°
2026-04-26 18:11 50.70309 8.08863 1930 ft 2 kts 356°
2026-04-26 18:11 50.70313 8.08866 1932 ft 3 kts 34°
2026-04-26 18:12 50.70347 8.08905 1941 ft 8 kts 35°
2026-04-26 18:12 50.70413 8.08954 1947 ft 10 kts 354°
2026-04-26 18:12 50.70473 8.08882 1947 ft 14 kts 308°
2026-04-26 18:12 50.70634 8.08558 1940 ft 67 kts 308°
2026-04-26 18:13 50.70958 8.07888 2064 ft 79 kts 306°
2026-04-26 18:13 50.71300 8.07167 2196 ft 88 kts 306°
2026-04-26 18:13 50.71652 8.06339 2443 ft 92 kts 303°
2026-04-26 18:13 50.71883 8.05749 2591 ft 98 kts 305°
2026-04-26 18:14 50.72388 8.04536 2843 ft 100 kts 307°
2026-04-26 18:14 50.72831 8.03672 3008 ft 101 kts 310°
2026-04-26 18:14 50.73225 8.02754 3159 ft 102 kts 310°
2026-04-26 18:14 50.73666 8.01886 3325 ft 101 kts 310°
2026-04-26 18:15 50.74071 8.00985 3480 ft 101 kts 308°
2026-04-26 18:15 50.74471 8.00083 3640 ft 100 kts 308°
2026-04-26 18:15 50.74910 7.99171 3700 ft 108 kts 326°
2026-04-26 18:15 50.75588 7.99215 3795 ft 110 kts 44°
2026-04-26 18:16 50.75645 8.00413 3742 ft 124 kts 120°
2026-04-26 18:16 50.74477 8.02562 3735 ft 136 kts 112°
2026-04-26 18:16 50.74209 8.03986 3704 ft 140 kts 92°
2026-04-26 18:17 50.74224 8.05526 3681 ft 139 kts 95°
2026-04-26 18:17 50.74040 8.06989 3751 ft 137 kts 101°
2026-04-26 18:17 50.73816 8.08494 3660 ft 143 kts 104°
2026-04-26 18:17 50.73404 8.09894 3673 ft 141 kts 118°
2026-04-26 18:18 50.72873 8.11245 3563 ft 146 kts 121°
2026-04-26 18:18 50.72375 8.12611 3592 ft 141 kts 116°
2026-04-26 18:18 50.71917 8.13995 3569 ft 142 kts 115°
2026-04-26 18:18 50.71466 8.15367 3537 ft 141 kts 115°
2026-04-26 18:19 50.71025 8.16763 3512 ft 142 kts 114°
2026-04-26 18:19 50.70578 8.18132 3520 ft 140 kts 116°
2026-04-26 18:19 50.70108 8.19494 3477 ft 141 kts 118°
2026-04-26 18:19 50.69616 8.20818 3444 ft 140 kts 118°
2026-04-26 18:20 50.69116 8.22141 3438 ft 138 kts 120°
2026-04-26 18:20 50.68585 8.23407 3412 ft 140 kts 123°
2026-04-26 18:20 50.67895 8.24493 3368 ft 140 kts 140°
2026-04-26 18:20 50.67368 8.25071 3348 ft 141 kts 144°
2026-04-26 18:21 50.66664 8.26687 3406 ft 134 kts 108°
2026-04-26 18:21 50.66224 8.27969 3455 ft 132 kts 119°
2026-04-26 18:21 50.65784 8.29270 3427 ft 136 kts 115°
2026-04-26 18:21 50.65325 8.30568 3438 ft 135 kts 120°
2026-04-26 18:22 50.64809 8.31802 3467 ft 135 kts 123°
2026-04-26 18:22 50.64192 8.32945 3452 ft 138 kts 130°
2026-04-26 18:22 50.63566 8.34076 3462 ft 137 kts 121°
2026-04-26 18:22 50.63085 8.35368 3466 ft 137 kts 117°
2026-04-26 18:23 50.62614 8.36664 3490 ft 136 kts 117°
2026-04-26 18:23 50.62168 8.37978 3504 ft 137 kts 114°
2026-04-26 18:23 50.61758 8.39326 3526 ft 136 kts 113°
2026-04-26 18:23 50.61362 8.40677 3535 ft 136 kts 112°
2026-04-26 18:24 50.60922 8.41995 3539 ft 136 kts 117°
2026-04-26 18:24 50.60457 8.43286 3553 ft 136 kts 117°
2026-04-26 18:24 50.59970 8.44574 3556 ft 137 kts 120°
2026-04-26 18:24 50.59547 8.45582 3549 ft 137 kts 123°
2026-04-26 18:25 50.59000 8.46799 3572 ft 136 kts 122°
2026-04-26 18:25 50.58470 8.48027 3582 ft 136 kts 122°
2026-04-26 18:25 50.57950 8.49260 3563 ft 137 kts 118°
2026-04-26 18:25 50.57499 8.50571 3593 ft 135 kts 116°
2026-04-26 18:26 50.57043 8.51870 3585 ft 136 kts 117°
2026-04-26 18:26 50.56577 8.53165 3583 ft 136 kts 118°
2026-04-26 18:26 50.56091 8.54454 3585 ft 137 kts 117°
2026-04-26 18:26 50.55628 8.55758 3598 ft 136 kts 117°
2026-04-26 18:27 50.55162 8.57053 3610 ft 137 kts 116°
2026-04-26 18:27 50.54691 8.58362 3616 ft 137 kts 120°
2026-04-26 18:27 50.54004 8.59429 3562 ft 142 kts 144°
2026-04-26 18:27 50.53088 8.59998 3576 ft 142 kts 164°
2026-04-26 18:28 50.52117 8.60285 3594 ft 142 kts 167°
2026-04-26 18:28 50.51161 8.60674 3601 ft 142 kts 162°
2026-04-26 18:28 50.50217 8.61085 3610 ft 142 kts 162°
2026-04-26 18:28 50.49246 8.61486 3612 ft 142 kts 163°
2026-04-26 18:29 50.48298 8.61890 3629 ft 141 kts 161°
2026-04-26 18:29 50.47354 8.62338 3623 ft 142 kts 161°
2026-04-26 18:29 50.46419 8.62776 3632 ft 142 kts 161°
2026-04-26 18:29 50.45469 8.63209 3626 ft 143 kts 161°
2026-04-26 18:30 50.44521 8.63661 3644 ft 142 kts 161°
2026-04-26 18:30 50.43544 8.63989 3602 ft 145 kts 172°
2026-04-26 18:30 50.42527 8.63896 3561 ft 147 kts 187°
2026-04-26 18:30 50.41544 8.63599 3616 ft 143 kts 187°
2026-04-26 18:31 50.40549 8.63463 3606 ft 144 kts 182°
2026-04-26 18:31 50.39542 8.63358 3608 ft 144 kts 182°
2026-04-26 18:31 50.38543 8.63216 3612 ft 144 kts 185°
2026-04-26 18:31 50.37548 8.63030 3619 ft 145 kts 186°
2026-04-26 18:32 50.36539 8.62888 3597 ft 145 kts 181°
2026-04-26 18:32 50.35530 8.62864 3611 ft 145 kts 179°
2026-04-26 18:32 50.34529 8.62842 3625 ft 144 kts 180°
2026-04-26 18:32 50.33522 8.62794 3609 ft 145 kts 180°
2026-04-26 18:33 50.32527 8.62658 3619 ft 145 kts 185°
2026-04-26 18:33 50.31519 8.62447 3614 ft 146 kts 186°
2026-04-26 18:33 50.30511 8.62227 3620 ft 146 kts 186°
2026-04-26 18:33 50.29501 8.62004 3625 ft 146 kts 186°
2026-04-26 18:34 50.28490 8.61787 3648 ft 145 kts 184°
2026-04-26 18:34 50.27584 8.62253 3748 ft 137 kts 139°
2026-04-26 18:34 50.27072 8.63468 3773 ft 136 kts 102°
2026-04-26 18:34 50.27185 8.64906 3775 ft 134 kts 59°
2026-04-26 18:35 50.27860 8.65812 3798 ft 132 kts 21°
2026-04-26 18:35 50.28774 8.65881 3793 ft 133 kts 345°
2026-04-26 18:35 50.29530 8.65094 3798 ft 135 kts 312°
2026-04-26 18:35 50.29874 8.63695 3739 ft 141 kts 276°
2026-04-26 18:36 50.29621 8.62220 3701 ft 147 kts 240°
2026-04-26 18:36 50.29150 8.61421 3659 ft 149 kts 217°
2026-04-26 18:36 50.28166 8.60878 3567 ft 151 kts 181°
2026-04-26 18:36 50.27189 8.61327 3593 ft 147 kts 143°
2026-04-26 18:37 50.26586 8.62537 3583 ft 143 kts 107°
2026-04-26 18:37 50.26585 8.64024 3611 ft 137 kts 68°
2026-04-26 18:37 50.27200 8.65121 3580 ft 138 kts 27°
2026-04-26 18:37 50.28143 8.65263 3568 ft 138 kts 345°
2026-04-26 18:38 50.28884 8.64366 3522 ft 142 kts 305°
2026-04-26 18:38 50.29107 8.62873 3504 ft 145 kts 267°
2026-04-26 18:38 50.28692 8.61449 3478 ft 147 kts 226°
2026-04-26 18:38 50.27763 8.60797 3425 ft 149 kts 181°
2026-04-26 18:39 50.26833 8.61244 3510 ft 141 kts 141°
2026-04-26 18:39 50.26263 8.62474 3532 ft 138 kts 104°
2026-04-26 18:39 50.26337 8.63912 3532 ft 136 kts 60°
2026-04-26 18:39 50.27057 8.64789 3521 ft 135 kts 13°
2026-04-26 18:40 50.27973 8.64555 3492 ft 138 kts 333°
2026-04-26 18:40 50.28624 8.63465 3487 ft 140 kts 296°
2026-04-26 18:40 50.28682 8.61992 3486 ft 142 kts 255°
2026-04-26 18:40 50.28102 8.60715 3408 ft 148 kts 216°
2026-04-26 18:41 50.27123 8.60349 3374 ft 149 kts 169°
2026-04-26 18:41 50.26263 8.61169 3333 ft 144 kts 126°
2026-04-26 18:41 50.26005 8.62619 3314 ft 142 kts 81°
2026-04-26 18:41 50.26452 8.63926 3319 ft 137 kts 41°
2026-04-26 18:42 50.27306 8.64448 3347 ft 135 kts
2026-04-26 18:42 50.28208 8.63957 3242 ft 144 kts 324°
2026-04-26 18:42 50.28762 8.62711 3303 ft 139 kts 292°
2026-04-26 18:42 50.28895 8.61202 3259 ft 144 kts 269°
2026-04-26 18:43 50.28563 8.59706 3109 ft 152 kts 232°
2026-04-26 18:43 50.27726 8.58793 3082 ft 148 kts 198°
2026-04-26 18:43 50.26694 8.58649 3041 ft 147 kts 167°
2026-04-26 18:43 50.25852 8.59404 3063 ft 138 kts 126°
2026-04-26 18:44 50.25575 8.60795 3021 ft 136 kts 84°
2026-04-26 18:44 50.25990 8.62061 3008 ft 132 kts 43°
2026-04-26 18:44 50.26763 8.62736 3064 ft 127 kts 19°